Voltar ao catálogo

COSMOS 2251 DEB

AtivoLEO
NORAD 35594·DEBRIS·🇷🇺 Russia

Lançado Jun 16, 1993 de Plesetsk Cosmodrome

Loading…

Próximas Passagens (próximas 24 horas)

TLE

AtualizadoSource: Space-Track

Época: Sep 14, 2026, 10:31 UTC

1 35594U 93036AMM 26257.43854428  .00008243  00000-0  75932-3 0  9993
2 35594  73.8038 265.6099 0030242 316.9679  42.9139 14.94509075922966

Acompanhe COSMOS 2251 DEB em tempo real com AllMySat

Download on the App Store